SL-14 DEB, 45294

Orbit data source: Space-Track

SL-14 DEB, 45294 is space debris in LEO originally from a launch on Thu, 15 Aug 1991 UTC launched from the Plesetsk Missile And Space Complex (PKMTR). Debris objects in space refer to the collection of defunct objects orbiting the Earth. Examples of debris include non-operational satellites, rocket bodies, and fragments generated from explosions, collisions, or faulty payload assembly.

Loading next visibility...
Identifier
45294, 1991-056AG
Orbit
LEO
Country
Flag of CISCIS
Related business
Manufacturer
Unknown
Mission
Spacecraft
Bus & Motor
Unknown
Mass
Unknown
Launch date (UTC)
1991-08-15 (35 years ago)
Launch vehicle
Unknown
Launch site
Plesetsk Missile And Space Complex (PKMTR)
Object type
Payload
Rocket body
Debris
Shape & HBR
Unknown shape, 0.1 m
Radar Cross Section
Medium (>0.1 m² and <1 m²)

Expand to show TLE details & history
Last TLE update: 1 day ago

TLE from 1 day ago
0 SL-14 DEB
1 45294U 91056AG  26253.93454039  .00000733  00000-0  17459-2 0  9991
2 45294  82.5641  75.1358 0013226 238.7394 121.2436 13.21705656315094
Epoch: 2026-09-10T22:25Z
TLE epoch observation values (Epoch: 2026-09-10T22:25:44.289Z)
Latitude
-0.00004°
Longitude
108.73613°
Altitude
1,186.221 km
Speed
7.258 km/s
True Right ascension
05h 00m 32s
True Declination
0° 00' 00"
Sunlit
Object was in daylight at epoch
Visualization orbit readout
Latitude
Unknown
Longitude
Unknown
Altitude
Unknown
Speed
Unknown
Apparent Right ascension
Unknown
Apparent Declination
Unknown
Sunlit
N/A
Visualization observer readout
Local Sidereal Time
15:51:01
Azimuth
Unknown
Elevation
Unknown
Doppler factor
Unknown
Orbital elements
Apogee altitude
1,185.44 km
Perigee altitude
1,165.459 km
Semi-major axis
7,553.587 km
Eccentricity
0.00132
Inclination
82.5641°
RAAN
75.1358°
Arg. of periapsis
238.7394°
True anomaly
121.37307°
Mean anomaly
121.2436°
Eccentric anomaly
121.30834°
Mean motion
3.30608 °/min
Orbital period
108.89 mins
BSTAR
0.0017459
Loading maneuver chart data...
Computing Atmospheric mass density...
Loading historical data...
Loading historical data...
Loading historical data...
Loading historical data...
Loading historical data...
Loading historical data...
Loading historical data...

Documentation

Showing up to 5 results
|